Location: ??????
(38.5153°N, 23.0340°E)
Time: 22:31:48
(UTC+00:00)

SL-16 R/B - Pass Details

Date: 13 December 2025
Orbit: 985 x 1007 km, 99.8° (Epoch: 14 January)

Event Time Altitude Azimuth Distance (km) Brightness Sun altitude
Rises 15:44:51 0° 8° (N) 3,725 5.2 -7.4°
Reaches altitude 10° 15:47:24 10° 3° (N) 2,768 4.6 -7.8°
Maximum altitude 15:53:18 48° 291° (WNW) 1,283 3.5 -8.9°
Drops below altitude 10° 15:59:09 10° 220° (SW) 2,740 5.9 -10.0°
Sets 16:01:41 0° 214° (SW) 3,682 6.5 -10.4°
